Вернуться в каталог

SL-12 DEB

АктивенMEO
NORAD 19753·DEBRIS·🇷🇺 Russia

Запущен Jan 10, 1989 с Baikonur Cosmodrome

Loading…

Ближайшие Пролёты (ближайшие 24 часа)

TLE

СвежийSource: Space-Track

Эпоха: Sep 14, 2026, 11:49 UTC

1 19753U 89001E   26257.49274069 -.00000011  00000-0  00000-0 0  9999
2 19753  65.0028  69.1154 0024863 212.6702 151.5780  2.13160798293599

Отслеживайте SL-12 DEB в реальном времени с AllMySat

Download on the App Store